Home   Weather   Guiyang   Past weeks

Flag for China Past Weather in Guiyang, Guizhou, China — Yesterday and Last 2 Weeks

82 °F

Partly sunny.

Feels Like: 84 °F
Forecast: 62 / 75 °F
Wind: 6 mph from Southwest

Location: Guiyang Airport

Current Time: Oct 22, 2016 at 3:08:22 PM

Latest Report: Oct 22, 2016 at 2:00 PM

Visibility: N/A

Pressure: 29.89 "Hg (26.48 "Hg at 1067m altitude)

Humidity: 55%

Dew Point: 64 °F

Location of GuiyangLocation

Past Weather in Guiyang — Graph


Guiyang Temperature Yesterday

Maximum temperature yesterday: 68 °F (at 12:00 PM)
Minimum temperature yesterday: 57 °F (at 7:00 AM)
Average temperature yesterday: 64 °F

High & Low Weather Summary for the Past Weeks

High82 °F (Oct 7, 2:00 PM)100% (Oct 8, 5:00 AM)30.24 "Hg (Oct 8, 5:00 AM)
Low52 °F (Oct 11, 6:00 AM)42% (Oct 7, 2:00 PM)29.86 "Hg (Oct 20, 3:00 PM)
Average61 °F90%30.08 "Hg
* Reported Oct 7 2:00 PM — Oct 22 2:00 PM, Guiyang, Weather by CustomWeather, © 2016

Note: Actual official high and low records may vary slightly from our data, if they occured in-between our weather recording intervals... More about our weather records


Guiyang Weather History for the Previous 24 Hours

Scroll right to see more
Time TempWeatherWind HumidityBarometerVisibility
2:00 PM
Sat, Oct 22
82 °FPartly sunny.6 mph55%29.89 "HgN/A
1:00 PM79 °FPartly sunny.3 mph54%29.92 "HgN/A
12:00 PM77 °FScattered clouds.3 mph61%29.95 "HgN/A
11:00 AM73 °FScattered clouds.3 mph69%29.98 "HgN/A
10:00 AM68 °FPartly sunny.1 mph78%30.01 "HgN/A
9:00 AM66 °FPartly sunny.1 mph88%30.01 "Hg4 mi
8:00 AM63 °FFog.1 mph100%30.01 "Hg3 mi
7:00 AM63 °FFog.1 mph100%29.98 "Hg3 mi
6:00 AM63 °FFog.1 mph100%29.95 "Hg3 mi
5:00 AM63 °FFog.1 mph100%29.95 "Hg2 mi
4:00 AM63 °FDrizzle. Fog.1 mph100%29.95 "Hg3 mi
3:00 AM63 °FMostly cloudy.1 mph100%29.95 "Hg4 mi
2:00 AM63 °FMostly cloudy.1 mph100%29.95 "Hg4 mi
1:00 AM63 °FMostly cloudy.1 mph100%29.95 "HgN/A
12:00 AM63 °FMostly cloudy.1 mph94%29.98 "HgN/A
11:00 PM
Fri, Oct 21
63 °FPartly cloudy.1 mph94%29.98 "HgN/A
10:00 PM63 °FPassing clouds.3 mph94%29.95 "HgN/A
9:00 PM64 °FMostly cloudy.1 mph88%29.95 "HgN/A
8:00 PM64 °FMostly cloudy.1 mph88%29.92 "HgN/A
7:00 PM66 °FMostly cloudy.1 mph83%29.92 "HgN/A
6:00 PM66 °FMostly cloudy.3 mph83%29.89 "HgN/A
5:00 PM68 °FMore clouds than sun.3 mph78%29.89 "Hg5 mi
4:00 PM68 °FMore clouds than sun.3 mph78%29.89 "Hg5 mi
3:00 PM68 °FMostly cloudy.3 mph78%29.89 "Hg5 mi
Weather by CustomWeather, © 2016

See weather overviewHow to use our weather pages